Tracking 29489 objects as of 10-Sep-2024
HD Live streaming from Space Station
objects crossing your sky now

COSMOS 2491 DEB

Track COSMOS 2491 DEB now!
10-day predictions


NORAD ID: 45127
Int'l Code: 2013-076Z
Perigee: 1,393.5 km
Apogee: 1,473.2 km
Inclination: 82.4 °
Period: 114.4 minutes
Semi major axis: 7804 km
RCS: Unknown
Launch date: December 25, 2013
Source: Commonwealth of Independent States (former USSR) (CIS)
Launch site: PLESETSK MISSILE AND SPACE COMPLEX (PKMTR)

Note: This is SATELLITE DEBRIS
Your satellite tracking list
Your tracking list is empty




NASA's NSSDC Master Catalog

Two Line Element Set (TLE):
1 45127U 13076Z   24253.09321049  .00003449  00000-0  19935-1 0  9998
2 45127  82.4488 181.5561 0051104 270.1542  89.3691 12.59209411211817
Source of the keplerian elements: AFSPC